| time (UTC) | temp F | wind direction | speed MPH | gust MPH | rain 1hr in | rain 24hr in | rain mn in | humidity % | barometer mb |
| 20260904191902 | 73 | 42 | 0.0 | 0.0 | 0.00 | 0.00 | 0.00 | 95 | 1006.6 |
| 20260904190902 | 73 | 42 | 0.0 | 0.0 | 0.00 | 0.00 | 0.00 | 95 | 1006.6 |
| 20260904185902 | 73 | 42 | 0.0 | 0.0 | 0.00 | 0.00 | 0.00 | 95 | 1006.6 |
| 20260904184901 | 73 | 42 | 0.0 | 0.0 | 0.00 | 0.00 | 0.00 | 95 | 1006.6 |
| 20260904183902 | 73 | 42 | 0.0 | 0.0 | 0.00 | 0.00 | 0.00 | 95 | 1006.6 |
| 20260904182902 | 73 | 42 | 0.0 | 0.0 | 0.00 | 0.00 | 0.00 | 95 | 1006.6 |
| 20260904181902 | 73 | 42 | 0.0 | 0.0 | 0.00 | 0.00 | 0.00 | 95 | 1006.6 |
| 20260904180902 | 73 | 42 | 0.0 | 0.0 | 0.00 | 0.00 | 0.00 | 95 | 1006.6 |
| 20260904175902 | 73 | 42 | 0.0 | 0.0 | 0.00 | 0.00 | 0.00 | 95 | 1006.6 |
| 20260904174902 | 73 | 42 | 0.0 | 0.0 | 0.00 | 0.00 | 0.00 | 95 | 1006.6 |
| 20260904173902 | 73 | 42 | 0.0 | 0.0 | 0.00 | 0.00 | 0.00 | 95 | 1006.6 |
| 20260904172902 | 73 | 42 | 0.0 | 0.0 | 0.00 | 0.00 | 0.00 | 95 | 1006.6 |
| 20260904171903 | 73 | 42 | 0.0 | 0.0 | 0.00 | 0.00 | 0.00 | 95 | 1006.6 |
| 20260904170901 | 73 | 42 | 0.0 | 0.0 | 0.00 | 0.00 | 0.00 | 95 | 1006.6 |
| 20260904165902 | 73 | 42 | 0.0 | 0.0 | 0.00 | 0.00 | 0.00 | 95 | 1006.6 |
| 20260904164902 | 73 | 42 | 0.0 | 0.0 | 0.00 | 0.00 | 0.00 | 95 | 1006.6 |
| 20260904163902 | 73 | 42 | 0.0 | 0.0 | 0.00 | 0.00 | 0.00 | 95 | 1006.6 |
| 20260904162902 | 73 | 42 | 0.0 | 0.0 | 0.00 | 0.00 | 0.00 | 95 | 1006.6 |
| 20260904161902 | 73 | 42 | 0.0 | 0.0 | 0.00 | 0.00 | 0.00 | 95 | 1006.6 |
| 20260904160901 | 73 | 42 | 0.0 | 0.0 | 0.00 | 0.00 | 0.00 | 95 | 1006.6 |
| 20260904155902 | 73 | 42 | 0.0 | 0.0 | 0.00 | 0.00 | 0.00 | 95 | 1006.6 |
| 20260904154902 | 73 | 42 | 0.0 | 0.0 | 0.00 | 0.00 | 0.00 | 95 | 1006.6 |
| 20260904153902 | 73 | 42 | 0.0 | 0.0 | 0.00 | 0.00 | 0.00 | 95 | 1006.6 |
| 20260904152902 | 73 | 42 | 0.0 | 0.0 | 0.00 | 0.00 | 0.00 | 95 | 1006.6 |
| 20260904151902 | 73 | 42 | 0.0 | 0.0 | 0.00 | 0.00 | 0.00 | 95 | 1006.6 |
| 20260904150902 | 73 | 42 | 0.0 | 0.0 | 0.00 | 0.00 | 0.00 | 95 | 1006.6 |
| 20260904145932 | 73 | 42 | 0.0 | 0.0 | 0.00 | 0.00 | 0.00 | 95 | 1006.6 |
| 20260904144903 | 73 | 42 | 0.0 | 0.0 | 0.00 | 0.00 | 0.00 | 95 | 1006.6 |
| 20260904143901 | 73 | 42 | 0.0 | 0.0 | 0.00 | 0.00 | 0.00 | 95 | 1006.6 |
| 20260904142902 | 73 | 42 | 0.0 | 0.0 | 0.00 | 0.00 | 0.00 | 95 | 1006.6 |
| 20260904141902 | 73 | 42 | 0.0 | 0.0 | 0.00 | 0.00 | 0.00 | 95 | 1006.6 |
| 20260904140902 | 73 | 42 | 0.0 | 0.0 | 0.00 | 0.00 | 0.00 | 95 | 1006.6 |
| 20260904135902 | 73 | 42 | 0.0 | 0.0 | 0.00 | 0.00 | 0.00 | 95 | 1006.6 |
| 20260904134902 | 73 | 42 | 0.0 | 0.0 | 0.00 | 0.00 | 0.00 | 95 | 1006.6 |
| 20260904133902 | 73 | 42 | 0.0 | 0.0 | 0.00 | 0.00 | 0.00 | 95 | 1006.6 |
| 20260904132902 | 73 | 42 | 0.0 | 0.0 | 0.00 | 0.00 | 0.00 | 95 | 1006.6 |
| 20260904131932 | 73 | 42 | 0.0 | 0.0 | 0.00 | 0.00 | 0.00 | 95 | 1006.6 |
| 20260904130902 | 73 | 42 | 0.0 | 0.0 | 0.00 | 0.00 | 0.00 | 95 | 1006.6 |
| 20260904125902 | 73 | 42 | 0.0 | 0.0 | 0.00 | 0.00 | 0.00 | 95 | 1006.6 |
| 20260904124932 | 73 | 42 | 0.0 | 0.0 | 0.00 | 0.00 | 0.00 | 95 | 1006.6 |
| 20260904123902 | 73 | 42 | 0.0 | 0.0 | 0.00 | 0.00 | 0.00 | 95 | 1006.6 |
| 20260904122903 | 73 | 42 | 0.0 | 0.0 | 0.00 | 0.00 | 0.00 | 95 | 1006.6 |
| 20260904121902 | 73 | 42 | 0.0 | 0.0 | 0.00 | 0.00 | 0.00 | 95 | 1006.6 |
| 20260904120902 | 73 | 42 | 0.0 | 0.0 | 0.00 | 0.00 | 0.00 | 95 | 1006.6 |
| 20260904115931 | 73 | 42 | 0.0 | 0.0 | 0.00 | 0.00 | 0.00 | 95 | 1006.6 |
| 20260904114902 | 73 | 42 | 0.0 | 0.0 | 0.00 | 0.00 | 0.00 | 95 | 1006.6 |
| 20260904113902 | 73 | 42 | 0.0 | 0.0 | 0.00 | 0.00 | 0.00 | 95 | 1006.6 |
| 20260904112901 | 73 | 42 | 0.0 | 0.0 | 0.00 | 0.00 | 0.00 | 95 | 1006.6 |
| 20260904111902 | 73 | 42 | 0.0 | 0.0 | 0.00 | 0.00 | 0.00 | 95 | 1006.6 |
| 20260904110932 | 73 | 42 | 0.0 | 0.0 | 0.00 | 0.00 | 0.00 | 95 | 1006.6 |
| 20260904105902 | 73 | 40 | 0.0 | 1.0 | 0.00 | 0.00 | 0.00 | 95 | 1006.6 |
| 20260904104932 | 74 | 116 | 0.0 | 1.0 | 0.00 | 0.00 | 0.00 | 94 | 1006.7 |
| 20260904103902 | 74 | 64 | 0.0 | 0.0 | 0.00 | 0.00 | 0.00 | 95 | 1006.7 |
| 20260904102902 | 74 | 74 | 0.0 | 0.0 | 0.00 | 0.00 | 0.00 | 94 | 1006.9 |
| 20260904101902 | 74 | 74 | 0.0 | 0.0 | 0.00 | 0.00 | 0.00 | 94 | 1006.7 |
| 20260904100932 | 74 | 74 | 0.0 | 0.0 | 0.00 | 0.00 | 0.00 | 94 | 1006.7 |
| 20260904095902 | 74 | 74 | 0.0 | 0.0 | 0.00 | 0.00 | 0.00 | 94 | 1006.6 |
| 20260904094902 | 74 | 74 | 0.0 | 0.0 | 0.00 | 0.00 | 0.00 | 94 | 1006.6 |
| 20260904093932 | 74 | 74 | 0.0 | 0.0 | 0.00 | 0.00 | 0.00 | 94 | 1006.5 |
| 20260904092902 | 75 | 84 | 0.0 | 0.0 | 0.00 | 0.00 | 0.00 | 94 | 1006.4 |
| 20260904091902 | 75 | 97 | 0.0 | 0.0 | 0.00 | 0.00 | 0.00 | 94 | 1006.3 |
| 20260904090902 | 75 | 80 | 0.0 | 0.0 | 0.00 | 0.00 | 0.00 | 94 | 1006.3 |
| 20260904085902 | 75 | 77 | 0.0 | 0.0 | 0.00 | 0.00 | 0.00 | 93 | 1006.3 |
| 20260904084902 | 75 | 77 | 0.0 | 0.0 | 0.00 | 0.00 | 0.00 | 93 | 1006.2 |
| 20260904083902 | 75 | 77 | 0.0 | 0.0 | 0.00 | 0.00 | 0.00 | 93 | 1006.2 |
| 20260904082902 | 75 | 77 | 0.0 | 0.0 | 0.00 | 0.00 | 0.00 | 93 | 1006.0 |
| 20260904081902 | 75 | 77 | 0.0 | 0.0 | 0.00 | 0.00 | 0.00 | 93 | 1006.0 |
| 20260904080902 | 75 | 117 | 0.0 | 0.0 | 0.00 | 0.00 | 0.00 | 92 | 1006.1 |
| 20260904075932 | 75 | 136 | 0.0 | 0.0 | 0.00 | 0.00 | 0.00 | 92 | 1006.0 |
| 20260904074902 | 76 | 84 | 0.0 | 0.0 | 0.00 | 0.00 | 0.00 | 92 | 1006.0 |
| 20260904073932 | 76 | 67 | 0.0 | 0.0 | 0.00 | 0.00 | 0.00 | 92 | 1006.0 |
| 20260904072902 | 76 | 83 | 0.0 | 0.0 | 0.00 | 0.00 | 0.00 | 92 | 1006.1 |
| 20260904071902 | 76 | 125 | 0.0 | 0.0 | 0.00 | 0.00 | 0.00 | 92 | 1006.1 |
| 20260904070932 | 76 | 106 | 0.0 | 0.0 | 0.00 | 0.00 | 0.00 | 92 | 1006.2 |
| 20260904065902 | 76 | 122 | 0.0 | 0.0 | 0.00 | 0.00 | 0.00 | 91 | 1006.2 |
| 20260904064902 | 76 | 147 | 0.0 | 0.0 | 0.00 | 0.00 | 0.00 | 91 | 1006.2 |
| 20260904063902 | 76 | 59 | 0.0 | 0.0 | 0.00 | 0.00 | 0.00 | 91 | 1006.3 |
| 20260904062902 | 76 | 123 | 0.0 | 0.0 | 0.00 | 0.00 | 0.00 | 91 | 1006.3 |
| 20260904061902 | 76 | 118 | 0.0 | 0.0 | 0.00 | 0.00 | 0.00 | 91 | 1006.3 |
| 20260904060932 | 77 | 73 | 0.0 | 0.0 | 0.00 | 0.00 | 0.00 | 91 | 1006.4 |
| 20260904055902 | 77 | 57 | 0.0 | 0.0 | 0.00 | 0.00 | 0.00 | 90 | 1006.4 |
| 20260904054902 | 77 | 71 | 0.0 | 0.0 | 0.00 | 0.00 | 0.00 | 90 | 1006.5 |
| 20260904053902 | 77 | 66 | 1.0 | 2.0 | 0.00 | 0.00 | 0.00 | 90 | 1006.4 |
| 20260904052902 | 77 | 59 | 2.0 | 3.0 | 0.00 | 0.00 | 0.00 | 90 | 1006.3 |
| 20260904051902 | 77 | 184 | 0.0 | 0.0 | 0.00 | 0.00 | 0.00 | 90 | 1006.2 |
| 20260904050902 | 77 | 202 | 1.0 | 5.0 | 0.00 | 0.00 | 0.00 | 89 | 1006.1 |
| 20260904045901 | 77 | 205 | 3.0 | 5.0 | 0.00 | 0.00 | 0.02 | 89 | 1006.1 |
| 20260904044903 | 77 | 195 | 2.0 | 4.0 | 0.00 | 0.00 | 0.02 | 89 | 1006.2 |
| 20260904043902 | 78 | 194 | 1.0 | 2.0 | 0.00 | 0.00 | 0.02 | 89 | 1006.1 |
| 20260904042901 | 78 | 158 | 1.0 | 3.0 | 0.00 | 0.00 | 0.02 | 88 | 1006.2 |
| 20260904041902 | 78 | 153 | 1.0 | 4.0 | 0.00 | 0.00 | 0.02 | 88 | 1006.1 |
| 20260904040903 | 78 | 63 | 0.0 | 0.0 | 0.00 | 0.00 | 0.02 | 88 | 1006.1 |
| 20260904035902 | 78 | 136 | 1.0 | 3.0 | 0.00 | 0.00 | 0.02 | 87 | 1006.1 |
| 20260904034902 | 78 | 92 | 1.0 | 2.0 | 0.00 | 0.00 | 0.02 | 87 | 1006.2 |
| 20260904033932 | 78 | 84 | 1.0 | 3.0 | 0.00 | 0.00 | 0.02 | 87 | 1006.2 |
| 20260904032902 | 78 | 87 | 1.0 | 3.0 | 0.00 | 0.00 | 0.02 | 86 | 1006.1 |
| 20260904031902 | 78 | 99 | 1.0 | 3.0 | 0.00 | 0.00 | 0.02 | 86 | 1006.2 |
| 20260904030903 | 78 | 116 | 0.0 | 0.0 | 0.00 | 0.00 | 0.02 | 85 | 1006.2 |
| 20260904025902 | 78 | 72 | 1.0 | 3.0 | 0.00 | 0.00 | 0.02 | 84 | 1006.4 |
| 20260904024903 | 78 | 87 | 0.0 | 1.0 | 0.00 | 0.00 | 0.02 | 84 | 1006.4 |
| 20260904023902 | 79 | 82 | 1.0 | 2.0 | 0.00 | 0.00 | 0.02 | 83 | 1006.4 |
| 20260904022932 | 79 | 71 | 2.0 | 3.0 | 0.00 | 0.00 | 0.02 | 82 | 1006.4 |
| 20260904021902 | 79 | 87 | 1.0 | 2.0 | 0.00 | 0.00 | 0.02 | 82 | 1006.3 |
| 20260904020902 | 80 | 74 | 0.0 | 1.0 | 0.00 | 0.00 | 0.02 | 81 | 1006.2 |
| 20260904015903 | 80 | 72 | 1.0 | 2.0 | 0.00 | 0.00 | 0.02 | 80 | 1006.3 |
| 20260904014902 | 80 | 67 | 1.0 | 1.0 | 0.00 | 0.00 | 0.02 | 79 | 1006.2 |
| 20260904013902 | 80 | 68 | 1.0 | 2.0 | 0.00 | 0.00 | 0.02 | 79 | 1006.1 |
| 20260904012902 | 81 | 98 | 1.0 | 2.0 | 0.00 | 0.00 | 0.02 | 78 | 1005.9 |
| 20260904011902 | 81 | 210 | 0.0 | 1.0 | 0.00 | 0.00 | 0.02 | 77 | 1005.7 |
| 20260904010902 | 81 | 137 | 2.0 | 4.0 | 0.00 | 0.00 | 0.02 | 77 | 1005.6 |
| 20260904005902 | 82 | 164 | 0.0 | 3.0 | 0.00 | 0.00 | 0.02 | 76 | 1005.6 |
| 20260904004902 | 82 | 232 | 0.0 | 1.0 | 0.00 | 0.00 | 0.02 | 75 | 1005.5 |
| 20260904003902 | 82 | 179 | 2.0 | 5.0 | 0.00 | 0.00 | 0.02 | 74 | 1005.5 |
| 20260904002932 | 82 | 212 | 0.0 | 2.0 | 0.00 | 0.00 | 0.02 | 73 | 1005.6 |
| 20260904001902 | 83 | 199 | 2.0 | 3.0 | 0.00 | 0.00 | 0.02 | 73 | 1005.7 |
| 20260904000902 | 83 | 161 | 1.0 | 4.0 | 0.00 | 0.00 | 0.02 | 72 | 1005.8 |
| 20260903235902 | 83 | 190 | 0.0 | 2.0 | 0.00 | 0.00 | 0.02 | 72 | 1005.7 |
| 20260903234902 | 83 | 212 | 1.0 | 4.0 | 0.00 | 0.00 | 0.02 | 72 | 1005.7 |
| 20260903233902 | 83 | 141 | 3.0 | 8.0 | 0.00 | 0.00 | 0.02 | 71 | 1005.5 |
| 20260903232902 | 83 | 149 | 1.0 | 2.0 | 0.00 | 0.00 | 0.02 | 72 | 1005.4 |
| 20260903231902 | 83 | 74 | 1.0 | 3.0 | 0.00 | 0.00 | 0.02 | 72 | 1005.1 |
| 20260903230902 | 84 | 163 | 3.0 | 6.0 | 0.00 | 0.00 | 0.02 | 72 | 1005.0 |
| 20260903225902 | 84 | 114 | 1.0 | 4.0 | 0.00 | 0.00 | 0.02 | 71 | 1005.0 |
| 20260903224902 | 84 | 126 | 1.0 | 2.0 | 0.00 | 0.00 | 0.02 | 71 | 1005.0 |
| 20260903223902 | 83 | 140 | 2.0 | 4.0 | 0.00 | 0.00 | 0.02 | 71 | 1005.0 |
| 20260903222902 | 83 | 201 | 4.0 | 6.0 | 0.00 | 0.00 | 0.02 | 72 | 1005.1 |
| 20260903221902 | 83 | 234 | 2.0 | 8.0 | 0.00 | 0.00 | 0.02 | 72 | 1005.0 |
| 20260903220902 | 82 | 134 | 4.0 | 8.0 | 0.00 | 0.00 | 0.02 | 73 | 1005.1 |
| 20260903215902 | 82 | 146 | 1.0 | 4.0 | 0.00 | 0.00 | 0.02 | 74 | 1005.3 |
| 20260903214902 | 82 | 173 | 3.0 | 11.0 | 0.00 | 0.00 | 0.02 | 75 | 1005.4 |
| 20260903213902 | 82 | 128 | 3.0 | 9.0 | 0.00 | 0.00 | 0.02 | 74 | 1005.3 |
| 20260903212932 | 84 | 65 | 2.0 | 3.0 | 0.00 | 0.00 | 0.01 | 70 | 1005.1 |
| 20260903211902 | 85 | 86 | 1.0 | 3.0 | 0.00 | 0.00 | 0.00 | 69 | 1005.8 |
| 20260903210902 | 85 | 79 | 3.0 | 7.0 | 0.00 | 0.00 | 0.00 | 69 | 1006.1 |
| 20260903205932 | 86 | 100 | 1.0 | 2.0 | 0.00 | 0.00 | 0.00 | 69 | 1006.1 |
| 20260903204902 | 86 | 124 | 1.0 | 4.0 | 0.00 | 0.00 | 0.00 | 69 | 1005.9 |
| 20260903203902 | 86 | 115 | 3.0 | 6.0 | 0.00 | 0.00 | 0.00 | 70 | 1006.0 |
| 20260903202902 | 86 | 77 | 1.0 | 3.0 | 0.00 | 0.00 | 0.00 | 70 | 1005.8 |
| 20260903201902 | 86 | 46 | 1.0 | 2.0 | 0.00 | 0.00 | 0.00 | 70 | 1005.9 |
| 20260903200902 | 86 | 83 | 1.0 | 4.0 | 0.00 | 0.00 | 0.00 | 70 | 1005.7 |
| 20260903195932 | 86 | 90 | 3.0 | 7.0 | 0.00 | 0.00 | 0.00 | 70 | 1006.1 |
| 20260903194932 | 85 | 148 | 2.0 | 7.0 | 0.00 | 0.00 | 0.00 | 73 | 1006.2 |
| 20260903193902 | 84 | 132 | 3.0 | 8.0 | 0.00 | 0.00 | 0.00 | 73 | 1006.2 |
| 20260903192902 | 83 | 90 | 4.0 | 7.0 | 0.00 | 0.00 | 0.00 | 74 | 1006.5 |